Weather History for KIML - September, 2013

Change the Weather History Date:

Thursday, September 5, 2013

  Actual Average Record
Temperature  
Mean Temperature 87 °F 69 °F  
Max Temperature 101 °F 83 °F 110 °F (1931)
Min Temperature 73 °F 54 °F 40 °F (1961)
Degree Days  
Heating Degree Days 0 1  
Month to date heating degree days 0 5  
Cooling Degree Days 22 5  
Month to date cooling degree days 73 28  
Year to date cooling degree days 1046 894  
Growing Degree Days 36 (Base 50)    
Moisture  
Dew Point 54 °F    
Average Humidity 40    
Maximum Humidity 64    
Minimum Humidity 16    
Precipitation  
Precipitation T in 0.06 in 0.54 in (1956)
Sea Level Pressure  
Sea Level Pressure 29.99 in    
Wind  
Wind Speed 10 mph (SSE)    
Max Wind Speed 21 mph    
Max Gust Speed 29 mph    
Visibility 10 miles    
Events      
T = Trace of Precipitation, MM = Missing Value Source: NWS Daily Summary

Daily Weather History Graph

Daily Weather History Graph

Search for Another Location

Airport or City:

Trip Planner

Search our weather history database for the weather conditions in past years. The results will help you decide how hot, cold, wet, or windy it might be!

Date:

Astronomy

Sep. 05, 2013 Rise Set
Actual Time 6:17 AM MDT 7:11 PM MDT
Civil Twilight 5:50 AM MDT 7:39 PM MDT
Nautical Twilight 5:17 AM MDT 8:12 PM MDT
Astronomical Twilight 4:42 AM MDT 8:46 PM MDT
Moon 6:31 AM MDT (9/5) 7:03 PM MDT (9/5)
Length of Visible Light 13h 49m
Length of Day
12h 53m
New Moon, 0% of the Moon is Illuminated
Sep 5
New Moon
Sep 12
First Quarter
Sep 19
Full
Sep 26
Last Quarter
Oct 4
New

Hourly Weather History & Observations

Time (MDT) Temp. Heat Index Dew Point Humidity Pressure Visibility Wind Dir Wind Speed Gust Speed Precip Events Conditions
12:53 AM 75.0 °F - 62.1 °F 64% 30.07 in 10.0 mi NW 8.1 mph - 0.00 in   Mostly Cloudy
1:53 AM 73.0 °F - 60.1 °F 64% 30.02 in 10.0 mi South 5.8 mph - N/A   Clear
2:53 AM 73.9 °F - 60.1 °F 62% 30.00 in 10.0 mi South 8.1 mph - N/A   Clear
3:53 AM 78.1 °F - 57.0 °F 48% 29.95 in 10.0 mi South 12.7 mph - N/A   Clear
4:53 AM 75.9 °F - 55.9 °F 50% 29.97 in 10.0 mi South 10.4 mph - N/A   Clear
5:53 AM 75.0 °F - 55.0 °F 50% 29.98 in 10.0 mi South 8.1 mph - 0.00 in   Partly Cloudy
6:53 AM 73.9 °F - 55.0 °F 52% 30.01 in 10.0 mi South 9.2 mph - N/A   Clear
7:53 AM 73.0 °F - 55.0 °F 53% 30.05 in 10.0 mi SSE 5.8 mph - N/A   Partly Cloudy
8:53 AM 73.9 °F - 55.9 °F 53% 30.04 in 10.0 mi South 9.2 mph - N/A   Scattered Clouds
9:53 AM 79.0 °F - 57.0 °F 47% 30.04 in 10.0 mi Calm Calm - N/A   Clear
10:53 AM 81.0 °F 81.1 °F 57.9 °F 45% 30.05 in 10.0 mi NNE 3.5 mph - N/A   Clear
11:53 AM 84.0 °F 83.5 °F 57.9 °F 41% 30.03 in 10.0 mi East 4.6 mph - N/A   Clear
12:53 PM 88.0 °F 86.7 °F 57.0 °F 35% 30.02 in 10.0 mi Variable 4.6 mph - N/A   Clear
1:53 PM 91.9 °F 90.3 °F 55.9 °F 30% 29.99 in 10.0 mi East 8.1 mph - N/A   Clear
2:53 PM 95.0 °F 92.7 °F 54.0 °F 25% 29.96 in 10.0 mi ESE 11.5 mph 16.1 mph N/A   Clear
3:53 PM 100.0 °F - 46.9 °F 16% 29.92 in 10.0 mi South 10.4 mph 20.7 mph N/A   Clear
4:53 PM 100.0 °F - 46.0 °F 16% 29.92 in 10.0 mi SSE 17.3 mph 24.2 mph N/A   Clear
5:53 PM 95.0 °F - 46.0 °F 19% 29.92 in 10.0 mi SSE 17.3 mph 21.9 mph N/A   Clear
6:53 PM 91.9 °F - 46.9 °F 21% 29.92 in 10.0 mi SSE 15.0 mph 21.9 mph N/A   Clear
7:53 PM 86.0 °F - 48.0 °F 27% 29.94 in 10.0 mi SSE 11.5 mph - N/A   Clear
8:53 PM 81.0 °F - 50.0 °F 34% 29.97 in 10.0 mi SSE 10.4 mph - N/A   Clear
9:53 PM 79.0 °F - 50.0 °F 36% 29.97 in 10.0 mi SSE 10.4 mph - N/A   Clear
10:53 PM 78.1 °F - 48.9 °F 36% 29.97 in 10.0 mi South 12.7 mph - N/A   Clear
11:53 PM 77.0 °F - 48.9 °F 37% 29.96 in 10.0 mi South 10.4 mph - N/A   Clear